GW5101 Weather Reports


time (UTC)temp
F
wind
direction
speed
knots
gust
knots
rain 1hr
in
rain 24hr
in
rain mn
in
humidity
%
barometer
mb
20260510174737 44 296 0.9 2.6 0.00 0.00 0.00 52 1022.6
20260510174234 44 351 3.5 7.0 0.00 0.00 0.00 52 1022.5
20260510173730 44 307 3.5 5.2 0.00 0.00 0.00 52 1022.5
20260510173226 45 290 0.9 2.6 0.00 0.00 0.00 52 1022.4
20260510172721 46 336 1.7 6.1 0.00 0.00 0.00 49 1022.5
20260510172218 45 343 7.0 7.8 0.00 0.00 0.00 53 1022.4
20260510171715 45 324 1.7 2.6 0.00 0.00 0.00 54 1022.4
20260510171212 46 334 2.6 3.5 0.00 0.00 0.00 51 1022.3
20260510170709 44 323 3.5 5.2 0.00 0.00 0.00 55 1022.4
20260510170205 45 346 1.7 2.6 0.00 0.00 0.00 55 1022.2
20260510165701 45 317 1.7 3.5 0.00 0.00 0.00 55 1022.3
20260510165157 46 346 3.5 7.8 0.00 0.00 0.00 53 1022.2
20260510164655 45 343 1.7 2.6 0.00 0.00 0.00 53 1022.4
20260510164152 48 358 1.7 3.5 0.00 0.00 0.00 49 1022.2
20260510163647 46 341 2.6 5.2 0.00 0.00 0.00 51 1022.0
20260510163143 46 268 1.7 2.6 0.00 0.00 0.00 53 1022.1
20260510162643 47 330 1.7 2.6 0.00 0.00 0.00 50 1022.1
20260510162140 45 340 1.7 1.7 0.00 0.00 0.00 50 1021.9
20260510161636 44 280 1.7 1.7 0.00 0.00 0.00 53 1021.9
20260510161133 46 317 1.7 3.5 0.00 0.00 0.00 52 1022.0
20260510160630 44 287 0.0 2.6 0.00 0.00 0.00 55 1021.8
20260510160130 44 294 1.7 1.7 0.00 0.00 0.00 53 1021.8
20260510155626 44 317 0.9 5.2 0.00 0.00 0.00 52 1021.8
20260510155122 45 275 0.9 1.7 0.00 0.00 0.00 50 1021.7
20260510154618 46 324 1.7 2.6 0.00 0.00 0.00 47 1021.7
20260510154114 45 284 0.0 1.7 0.00 0.00 0.00 51 1021.6
20260510153609 44 270 2.6 3.5 0.00 0.00 0.00 53 1021.5
20260510153106 44 278 1.7 2.6 0.00 0.00 0.00 51 1021.5
20260510152602 45 334 0.9 1.7 0.00 0.00 0.00 55 1021.3
20260510152059 44 317 2.6 3.5 0.00 0.00 0.00 52 1021.2
20260510151555 43 357 1.7 3.5 0.00 0.00 0.00 55 1021.5
20260510151053 42 329 2.6 3.5 0.00 0.00 0.00 55 1021.3
20260510150547 43 293 0.9 5.2 0.00 0.00 0.00 55 1021.2
20260510150044 42 299 1.7 3.5 0.00 0.00 0.00 55 1021.2
20260510145541 42 294 3.5 6.1 0.00 0.00 0.00 56 1021.1
20260510145037 44 358 4.3 5.2 0.00 0.00 0.00 56 1020.9
20260510144534 44 327 1.7 1.7 0.00 0.00 0.00 56 1021.0
20260510144030 43 296 0.0 0.9 0.00 0.00 0.00 56 1020.9
20260510143525 43 339 1.7 2.6 0.00 0.00 0.00 58 1020.9
20260510143022 43 270 0.9 3.5 0.00 0.00 0.00 58 1020.8
20260510142519 43 298 0.0 1.7 0.00 0.00 0.00 56 1020.9
20260510142015 42 334 4.3 7.0 0.00 0.00 0.00 58 1020.8
20260510141512 42 266 1.7 3.5 0.00 0.00 0.00 60 1021.0
20260510141010 42 28 1.7 1.7 0.00 0.00 0.00 62 1020.8
20260510140506 42 266 1.7 5.2 0.00 0.00 0.00 61 1020.9
20260510140006 41 314 2.6 3.5 0.00 0.00 0.00 60 1020.7
20260510135501 42 338 0.9 3.5 0.00 0.00 0.00 60 1020.7
20260510134958 42 329 0.9 2.6 0.00 0.00 0.00 59 1020.6
20260510134455 43 329 0.9 5.2 0.00 0.00 0.00 60 1020.7
20260510133952 42 311 0.9 1.7 0.00 0.00 0.00 62 1020.6
20260510133448 42 288 2.6 3.5 0.00 0.00 0.00 62 1020.5
20260510132943 42 342 2.6 3.5 0.00 0.00 0.00 63 1020.5
20260510132441 42 307 0.9 1.7 0.00 0.00 0.00 64 1020.4
20260510131938 41 295 2.6 3.5 0.00 0.00 0.00 65 1020.4
20260510131435 41 334 2.6 5.2 0.00 0.00 0.00 66 1020.5
20260510130932 41 298 0.0 0.0 0.00 0.00 0.00 68 1020.3
20260510130429 41 316 1.7 1.7 0.00 0.00 0.00 68 1020.3
20260510125926 41 272 0.9 1.7 0.00 0.00 0.00 67 1020.4
20260510125421 40 271 0.9 3.5 0.00 0.00 0.00 68 1020.4
20260510124919 40 289 1.7 1.7 0.00 0.00 0.00 69 1020.1
20260510124415 40 274 0.9 1.7 0.00 0.00 0.00 69 1020.1
20260510123912 39 289 0.9 2.6 0.00 0.00 0.00 70 1020.0
20260510123407 39 285 0.0 1.7 0.00 0.00 0.00 70 1020.2
20260510122904 39 312 1.7 1.7 0.00 0.00 0.00 71 1019.9
20260510122359 39 311 0.9 1.7 0.00 0.00 0.00 71 1019.8
20260510121855 38 271 0.0 0.9 0.00 0.00 0.00 71 1020.0
20260510121353 38 291 0.0 1.7 0.00 0.00 0.00 71 1019.7
20260510120850 37 297 1.7 1.7 0.00 0.00 0.00 72 1019.9
20260510120348 37 281 0.0 0.0 0.00 0.00 0.00 73 1019.9
20260510115843 37 291 0.0 0.9 0.00 0.00 0.00 73 1019.9
20260510115341 36 293 0.9 1.7 0.00 0.00 0.00 74 1019.7
20260510114836 35 277 0.0 0.9 0.00 0.00 0.00 76 1019.7
20260510114334 35 268 0.0 0.9 0.00 0.00 0.00 76 1019.6
20260510113833 34 273 0.0 0.0 0.00 0.00 0.00 76 1019.4
20260510113330 34 281 0.0 0.0 0.00 0.00 0.00 77 1019.5
20260510112827 34 281 0.0 0.0 0.00 0.00 0.00 77 1019.4
20260510112324 33 278 0.0 0.0 0.00 0.00 0.00 77 1019.2
20260510111820 32 278 0.0 0.0 0.00 0.00 0.00 78 1019.2
20260510111317 32 278 0.0 0.0 0.00 0.00 0.00 79 1019.2
20260510110817 32 278 0.0 0.0 0.00 0.00 0.00 80 1018.9
20260510110314 31 278 0.0 0.0 0.00 0.00 0.00 80 1018.9
20260510105810 31 278 0.0 0.0 0.00 0.00 0.00 81 1018.9
20260510105306 31 278 0.0 0.0 0.00 0.00 0.00 82 1018.8
20260510104801 31 278 0.0 0.0 0.00 0.00 0.00 81 1018.6
20260510104259 30 278 0.0 0.0 0.00 0.00 0.00 81 1018.8
20260510103755 31 278 0.0 0.0 0.00 0.00 0.00 82 1018.5
20260510103252 31 278 0.0 0.0 0.00 0.00 0.00 82 1018.7
20260510102751 31 278 0.0 0.0 0.00 0.00 0.00 81 1018.6
20260510102247 32 278 0.0 0.0 0.00 0.00 0.00 80 1018.5
20260510101745 32 278 0.0 0.0 0.00 0.00 0.00 79 1018.4
20260510101244 33 278 0.0 0.0 0.00 0.00 0.00 78 1018.3
20260510100739 33 278 0.0 0.0 0.00 0.00 0.00 77 1018.4
20260510100238 33 278 0.0 0.0 0.00 0.00 0.00 76 1018.3
20260510095733 33 278 0.0 0.0 0.00 0.00 0.00 76 1018.1
20260510095228 33 278 0.0 0.0 0.00 0.00 0.00 76 1017.9
20260510094727 33 278 0.0 0.0 0.00 0.00 0.00 77 1018.0
20260510094222 33 278 0.0 0.0 0.00 0.00 0.00 78 1018.1
20260510093718 33 278 0.0 0.0 0.00 0.00 0.00 78 1018.1
20260510093216 33 278 0.0 0.0 0.00 0.00 0.00 78 1017.9
20260510092712 33 277 0.0 0.0 0.00 0.00 0.00 78 1018.0
20260510092208 33 278 0.0 0.0 0.00 0.00 0.00 77 1017.9
20260510091704 34 278 0.0 0.0 0.00 0.00 0.00 74 1017.9
20260510091200 34 278 0.0 0.0 0.00 0.00 0.00 74 1017.8
20260510090652 34 278 0.0 0.0 0.00 0.00 0.00 74 1017.7
20260510090149 35 278 0.0 0.0 0.00 0.00 0.00 71 1017.5
20260510085644 35 278 0.0 0.0 0.00 0.00 0.00 71 1017.6
20260510085139 35 277 0.0 0.0 0.00 0.00 0.00 68 1017.6
20260510084636 36 277 0.0 0.0 0.00 0.00 0.00 69 1017.4
20260510084132 36 277 0.0 0.0 0.00 0.00 0.00 72 1017.6
20260510083629 36 278 0.0 0.0 0.00 0.00 0.00 64 1017.4
20260510083125 36 278 0.0 0.0 0.00 0.00 0.00 67 1017.4
20260510082621 36 277 0.0 0.9 0.00 0.00 0.00 67 1017.4
20260510082117 36 292 0.0 0.0 0.00 0.00 0.00 68 1017.2
20260510081612 35 314 0.9 0.9 0.00 0.00 0.00 70 1017.3
20260510081108 34 280 0.0 0.0 0.00 0.00 0.00 76 1017.2
20260510080607 33 280 0.0 0.0 0.00 0.00 0.00 80 1017.2
20260510080104 33 281 0.0 0.0 0.00 0.00 0.00 81 1017.1
20260510075601 33 281 0.0 0.0 0.00 0.00 0.00 82 1017.2
20260510075058 32 281 0.0 0.0 0.00 0.00 0.00 81 1017.2
20260510074555 32 281 0.0 0.0 0.00 0.00 0.00 76 1017.2
20260510074051 32 281 0.0 0.0 0.00 0.00 0.00 77 1017.0
20260510073547 32 281 0.0 0.0 0.00 0.00 0.00 77 1017.0
20260510073044 32 281 0.0 0.0 0.00 0.00 0.00 77 1016.9
20260510072541 32 281 0.0 0.0 0.00 0.00 0.00 76 1017.0
20260510072036 32 281 0.0 0.0 0.00 0.00 0.00 77 1017.1
20260510071533 32 281 0.0 0.0 0.00 0.00 0.00 76 1016.9
20260510071031 32 281 0.0 0.0 0.00 0.00 0.00 75 1017.0
20260510070528 32 281 0.0 0.0 0.00 0.00 0.00 77 1017.0
20260510070025 32 281 0.0 0.0 0.00 0.00 0.00 76 1016.7
20260510065521 32 281 0.0 0.0 0.00 0.00 0.00 76 1017.0
20260510065017 32 281 0.0 0.0 0.00 0.00 0.00 78 1016.7
20260510064514 31 281 0.0 0.0 0.00 0.00 0.00 77 1016.7
20260510064010 31 281 0.0 0.0 0.00 0.00 0.00 77 1016.9
20260510063507 31 281 0.0 0.0 0.00 0.00 0.00 79 1016.9
20260510063005 31 281 0.0 0.0 0.00 0.00 0.00 80 1017.0
20260510062500 31 281 0.0 0.0 0.00 0.00 0.00 79 1016.9
20260510061955 30 281 0.0 0.0 0.00 0.00 0.00 78 1016.9
20260510061452 30 281 0.0 0.0 0.00 0.00 0.00 77 1016.9
20260510060949 30 281 0.0 0.0 0.00 0.00 0.00 78 1016.9
20260510060446 31 280 0.0 0.0 0.00 0.00 0.00 78 1017.1
20260510055942 31 281 0.0 0.0 0.00 0.00 0.00 78 1016.9
20260510055438 31 281 0.0 0.0 0.00 0.00 0.00 79 1016.9
20260510054936 31 281 0.0 0.0 0.00 0.00 0.00 82 1016.9
20260510054431 31 281 0.0 0.0 0.00 0.00 0.00 79 1016.9
20260510053926 31 281 0.0 0.0 0.00 0.00 0.00 77 1016.7
20260510053422 31 281 0.0 0.0 0.00 0.00 0.00 75 1016.9
20260510052918 31 281 0.0 0.0 0.00 0.00 0.00 75 1016.9
20260510052414 31 281 0.0 0.0 0.00 0.00 0.00 75 1016.7
20260510051911 31 281 0.0 0.0 0.00 0.00 0.00 76 1016.9
20260510051408 32 281 0.0 0.0 0.00 0.00 0.00 74 1016.6
20260510050904 32 281 0.0 0.0 0.00 0.00 0.00 75 1016.6
20260510050401 32 281 0.0 0.0 0.00 0.00 0.00 74 1016.5
20260510045857 32 281 0.0 0.0 0.00 0.00 0.00 73 1016.6
20260510045354 32 281 0.0 0.0 0.00 0.00 0.00 74 1016.6
20260510044851 33 281 0.0 0.0 0.00 0.00 0.00 73 1016.5
20260510044348 33 281 0.0 0.0 0.00 0.00 0.00 73 1016.4
20260510043845 33 281 0.0 0.0 0.00 0.00 0.00 71 1016.4
20260510043341 33 281 0.0 0.0 0.00 0.00 0.00 71 1016.5
20260510042839 34 281 0.0 0.0 0.00 0.00 0.00 71 1016.5
20260510042334 34 281 0.0 0.0 0.00 0.00 0.00 72 1016.5
20260510041831 34 281 0.0 0.0 0.00 0.00 0.00 72 1016.4
20260510041328 35 281 0.0 0.0 0.00 0.00 0.00 68 1016.5
20260510040826 35 286 0.0 0.0 0.00 0.00 0.00 66 1016.3
20260510040322 36 286 0.0 0.0 0.00 0.00 0.00 65 1016.4
20260510035818 36 286 0.0 0.0 0.00 0.00 0.00 66 1016.2
20260510035314 36 286 0.0 0.0 0.00 0.00 0.00 66 1016.2
20260510034809 36 285 0.0 0.0 0.00 0.00 0.00 65 1016.1
20260510034307 37 284 0.0 0.0 0.00 0.00 0.00 65 1016.3
20260510033803 37 276 0.0 0.0 0.00 0.00 0.00 66 1016.1
20260510033301 37 275 0.0 0.0 0.00 0.00 0.00 65 1016.1
20260510032757 36 273 0.0 0.9 0.00 0.00 0.00 66 1016.1
20260510032253 36 277 0.0 0.0 0.00 0.00 0.00 66 1016.2
20260510031749 36 279 0.0 0.0 0.00 0.00 0.00 67 1016.0
20260510031245 36 279 0.0 0.0 0.00 0.00 0.00 66 1015.9
20260510030744 36 279 0.0 0.0 0.00 0.00 0.00 66 1015.8
20260510030236 36 279 0.0 0.0 0.00 0.00 0.00 65 1015.8
20260510025733 36 279 0.0 0.0 0.00 0.00 0.00 66 1015.7
20260510025232 37 282 0.0 0.0 0.00 0.00 0.00 66 1015.7
20260510024728 37 283 0.0 0.0 0.00 0.00 0.00 65 1015.9
20260510024225 37 283 0.0 0.0 0.00 0.00 0.00 63 1016.0
20260510023720 38 283 0.0 0.0 0.00 0.00 0.00 67 1015.8
20260510023217 38 282 0.9 0.9 0.00 0.00 0.00 63 1015.8
20260510022714 39 284 0.0 0.0 0.00 0.00 0.00 61 1015.7
20260510022208 39 286 0.0 0.0 0.00 0.00 0.00 61 1015.4
20260510021703 40 290 0.0 0.0 0.00 0.00 0.00 59 1015.3
20260510021201 40 290 0.0 0.0 0.00 0.00 0.00 58 1015.4
20260510020655 41 290 0.0 0.0 0.00 0.00 0.00 56 1015.4
20260510020151 41 291 0.0 0.0 0.00 0.00 0.00 55 1015.1
20260510015647 41 288 0.0 0.0 0.00 0.00 0.00 53 1015.1
20260510015144 41 288 0.0 0.0 0.00 0.00 0.00 55 1015.2
20260510014644 42 288 0.0 0.0 0.00 0.00 0.00 55 1015.2
20260510014142 42 288 0.0 0.0 0.00 0.00 0.00 54 1014.9
20260510013637 44 294 0.0 0.0 0.00 0.00 0.00 51 1014.7
20260510013133 44 314 0.9 1.7 0.00 0.00 0.00 48 1014.9
20260510012633 44 310 0.9 1.7 0.00 0.00 0.00 48 1014.8
20260510012129 45 308 0.9 1.7 0.00 0.00 0.00 46 1014.4
20260510011628 45 314 0.9 2.6 0.00 0.00 0.00 46 1014.6
20260510011124 45 333 1.7 1.7 0.00 0.00 0.00 46 1014.2
20260510010620 45 316 0.9 3.5 0.00 0.00 0.00 45 1014.2
20260510010118 45 332 0.9 2.6 0.00 0.00 0.00 45 1014.2
20260510005613 46 301 0.0 0.9 0.00 0.00 0.00 46 1014.1
20260510005111 46 300 0.9 0.9 0.00 0.00 0.00 45 1013.9
20260510004609 46 338 1.7 2.6 0.00 0.00 0.00 45 1013.9
20260510004107 46 312 1.7 1.7 0.00 0.00 0.00 44 1013.8
20260510003603 46 347 1.7 1.7 0.00 0.00 0.00 44 1013.9
20260510003059 46 296 0.9 3.5 0.00 0.00 0.00 44 1013.6
20260510002555 46 306 0.9 1.7 0.00 0.00 0.00 43 1013.5
20260510002052 47 324 0.9 1.7 0.00 0.00 0.00 43 1013.5
20260510001549 47 300 0.9 2.6 0.00 0.00 0.00 44 1013.4
20260510001048 47 327 2.6 2.6 0.00 0.00 0.00 43 1013.4
20260510000548 47 314 0.9 2.6 0.00 0.00 0.00 43 1013.3
20260510000045 47 348 3.5 3.5 0.00 0.00 0.00 42 1013.2
20260509235541 47 326 1.7 2.6 0.00 0.00 0.00 42 1013.0
20260509235038 47 334 1.7 2.6 0.00 0.00 0.00 43 1013.0
20260509234534 47 301 0.9 2.6 0.00 0.00 0.00 46 1013.1
20260509234032 47 291 1.7 6.1 0.00 0.00 0.00 42 1012.9
20260509233529 48 339 2.6 5.2 0.00 0.00 0.00 42 1013.0
20260509233027 48 303 0.0 1.7 0.00 0.00 0.00 44 1012.9
20260509232523 48 317 0.9 2.6 0.00 0.00 0.00 41 1012.7
20260509232020 48 320 0.9 2.6 0.00 0.00 0.00 40 1012.9
20260509231516 48 294 0.0 1.7 0.00 0.00 0.00 43 1012.9
20260509231014 48 302 0.9 0.9 0.00 0.00 0.00 43 1012.9
20260509230511 48 323 0.9 1.7 0.00 0.00 0.00 42 1012.8
20260509230008 48 348 1.7 2.6 0.00 0.00 0.00 39 1012.7
20260509225503 49 283 0.0 1.7 0.00 0.00 0.00 42 1012.8
20260509224959 49 292 0.0 1.7 0.00 0.00 0.00 41 1012.6
20260509224454 48 289 0.0 0.9 0.00 0.00 0.00 44 1012.5
20260509223952 48 332 1.7 2.6 0.00 0.00 0.00 44 1012.6
20260509223448 47 313 0.9 2.6 0.00 0.00 0.00 41 1012.6
20260509222946 48 345 1.7 6.1 0.00 0.00 0.00 40 1012.6
20260509222441 48 255 1.7 2.6 0.00 0.00 0.00 39 1012.4
20260509221937 48 351 3.5 9.6 0.00 0.00 0.00 39 1012.4
20260509221434 49 312 0.9 3.5 0.00 0.00 0.00 39 1012.4
20260509220929 48 335 2.6 6.1 0.00 0.00 0.00 39 1012.6
20260509220426 48 331 0.9 6.1 0.00 0.00 0.00 41 1012.4
20260509215922 48 353 3.5 3.5 0.00 0.00 0.00 39 1012.3
20260509215417 48 293 0.9 7.0 0.00 0.00 0.00 39 1012.4
20260509214915 48 352 3.5 7.8 0.00 0.00 0.00 39 1012.3
20260509214412 48 2 5.2 7.8 0.00 0.00 0.00 39 1012.3
20260509213909 48 353 3.5 6.1 0.00 0.00 0.00 38 1012.4
20260509213405 48 3 2.6 7.0 0.00 0.00 0.00 38 1012.0
20260509212903 49 311 3.5 5.2 0.00 0.00 0.00 38 1012.0
20260509212400 49 315 0.9 6.1 0.00 0.00 0.00 37 1012.0
20260509211856 49 320 3.5 5.2 0.00 0.00 0.00 38 1011.8
20260509211352 48 351 7.0 9.6 0.00 0.00 0.00 37 1011.6
20260509210848 48 337 0.9 6.1 0.00 0.00 0.00 39 1011.7
20260509210346 49 315 0.9 7.0 0.00 0.00 0.00 39 1011.5
20260509205846 48 308 1.7 7.0 0.00 0.00 0.00 39 1011.5
20260509205340 50 357 1.7 5.2 0.00 0.00 0.00 38 1011.7
20260509204837 50 286 1.7 7.0 0.00 0.00 0.00 38 1011.5
20260509204334 50 321 2.6 3.5 0.00 0.00 0.00 39 1011.4
20260509203830 49 291 1.7 5.2 0.00 0.00 0.00 39 1011.4
20260509203327 49 286 1.7 6.1 0.00 0.00 0.00 39 1011.5
20260509202823 51 337 2.6 5.2 0.00 0.00 0.00 37 1011.3
20260509202320 50 316 1.7 2.6 0.00 0.00 0.00 38 1011.2
20260509201818 51 303 2.6 5.2 0.00 0.00 0.00 38 1011.1
20260509201316 50 282 0.9 1.7 0.00 0.00 0.00 38 1011.1
20260509200812 51 327 1.7 3.5 0.00 0.00 0.00 37 1011.0
20260509200308 51 352 3.5 7.0 0.00 0.00 0.00 39 1010.8
20260509195804 51 314 0.9 7.0 0.00 0.00 0.00 38 1011.1
20260509195259 52 281 1.7 3.5 0.00 0.00 0.00 36 1010.8
20260509194759 52 334 5.2 8.7 0.00 0.00 0.00 36 1010.9
20260509194255 51 348 3.5 8.7 0.00 0.00 0.00 36 1010.6
20260509193752 51 13 2.6 3.5 0.00 0.00 0.00 38 1010.6
20260509193247 51 353 2.6 7.8 0.00 0.00 0.00 36 1010.7
20260509192743 50 355 3.5 7.8 0.00 0.00 0.00 37 1010.6
20260509192238 48 0 2.6 6.1 0.00 0.00 0.00 40 1010.6
20260509191734 51 17 3.5 6.1 0.00 0.00 0.00 39 1010.4
20260509191230 51 271 3.5 7.0 0.00 0.00 0.00 37 1010.5
20260509190726 51 308 0.9 2.6 0.00 0.00 0.00 39 1010.4
20260509190223 50 268 2.6 5.2 0.00 0.00 0.00 37 1009.8
20260509185721 50 321 0.9 6.1 0.00 0.00 0.00 37 1010.2
20260509185217 50 292 2.6 8.7 0.00 0.00 0.00 38 1010.1
20260509184715 49 293 0.9 7.8 0.00 0.00 0.00 40 1010.1
20260509184212 50 348 6.1 7.8 0.00 0.00 0.00 39 1009.7
20260509183708 50 253 2.6 7.0 0.00 0.00 0.00 41 1009.8
20260509183203 50 337 2.6 7.8 0.00 0.00 0.00 40 1009.7
20260509182659 49 292 0.9 8.7 0.00 0.00 0.00 41 1009.5
20260509182157 50 345 4.3 6.1 0.00 0.00 0.00 40 1009.6
20260509181654 50 298 0.9 5.2 0.00 0.00 0.00 40 1009.5
20260509181152 50 354 1.7 6.1 0.00 0.00 0.00 41 1009.4
20260509180648 53 8 3.5 6.1 0.00 0.00 0.00 38 1009.2
20260509180144 51 341 3.5 7.0 0.00 0.00 0.00 38 1009.3
20260509175641 52 7 5.2 8.7 0.00 0.00 0.00 36 1009.1
20260509175138 51 3 2.6 6.1 0.00 0.00 0.00 38 1008.9